DW5595 Weather Reports


time (UTC)temp
C
wind
direction
speed
KPH
gust
KPH
rain 1hr
cm
rain 24hr
cm
rain mn
cm
humidity
%
barometer
mb
20260904041533 23 261 0.0 0.0 0.00 0.00 0.00 94 1017.9
20260904040031 23 261 0.0 0.0 0.00 0.00 0.00 93 1017.8
20260904034535 23 261 0.0 0.0 0.00 0.00 0.00 93 1018.0
20260904033030 23 261 0.0 0.0 0.00 0.00 0.00 93 1018.0
20260904031533 23 261 0.0 0.0 0.00 0.00 0.00 92 1017.9
20260904030034 24 261 0.0 0.0 0.00 0.00 0.00 92 1018.0
20260904024534 24 261 0.0 0.0 0.00 0.00 0.00 92 1018.0
20260904023028 24 261 0.0 0.0 0.00 0.00 0.00 90 1018.2
20260904021533 25 159 0.0 0.0 0.00 0.00 0.00 91 1018.4
20260904020026 25 159 0.0 0.0 0.00 0.00 0.00 90 1018.2
20260904014557 25 159 0.0 0.0 0.00 0.00 0.00 89 1018.0
20260904013019 25 159 0.0 0.0 0.00 0.00 0.00 88 1017.7
20260904011533 25 159 0.0 0.0 0.00 0.00 0.00 86 1017.5
20260904010012 26 159 0.0 0.0 0.00 0.00 0.00 86 1017.4
20260904004508 26 159 0.0 0.0 0.00 0.00 0.00 84 1017.2
20260904003009 27 159 0.0 0.0 0.00 0.00 0.00 83 1016.8
20260904001534 27 159 0.0 0.0 0.00 0.00 0.00 80 1016.6
20260904000026 28 159 0.0 0.0 0.00 0.00 0.00 75 1016.4
20260903234518 29 159 0.0 0.0 0.00 0.00 0.00 74 1016.3
20260903233015 30 159 0.0 0.0 0.00 0.00 0.00 72 1016.2
20260903231512 30 159 0.0 0.0 0.00 0.00 0.00 67 1016.2
20260903230018 31 159 0.0 0.0 0.00 0.00 0.00 64 1016.1
20260903224532 31 143 0.0 3.2 0.00 0.00 0.00 61 1016.1
20260903223033 32 170 0.0 3.2 0.00 0.00 0.00 57 1016.1
20260903221528 32 159 1.6 4.8 0.00 0.00 0.00 56 1016.1
20260903220040 32 195 3.2 4.8 0.00 0.00 0.00 56 1016.1
20260903214534 33 130 1.6 6.4 0.00 0.00 0.00 57 1016.3
20260903213036 33 160 3.2 4.8 0.00 0.00 0.00 56 1016.2
20260903211512 32 161 0.0 0.0 0.00 0.00 0.00 55 1016.4
20260903210033 32 346 0.0 3.2 0.00 0.00 0.00 59 1016.4
20260903204530 33 202 0.0 6.4 0.00 0.00 0.00 53 1016.6
20260903203025 33 143 3.2 11.3 0.00 0.00 0.00 54 1016.7
20260903201536 33 148 3.2 6.4 0.00 0.00 0.00 51 1016.8
20260903200018 33 153 0.0 11.3 0.00 0.00 0.00 52 1017.0
20260903194534 34 145 1.6 4.8 0.00 0.00 0.00 53 1017.1
20260903193035 34 5 0.0 4.8 0.00 0.00 0.00 51 1017.4
20260903191533 34 111 1.6 3.2 0.00 0.00 0.00 52 1017.4
20260903190031 35 15 1.6 4.8 0.00 0.00 0.00 50 1017.5
20260903184528 34 266 0.0 9.7 0.00 0.00 0.00 51 1017.7
20260903183026 35 167 0.0 6.4 0.00 0.00 0.00 54 1017.9
20260903181531 34 11 1.6 4.8 0.00 0.00 0.00 49 1018.0
20260903180041 34 169 0.0 6.4 0.00 0.00 0.00 51 1018.3
20260903174517 33 86 1.6 4.8 0.00 0.00 0.00 54 1018.2
20260903173036 33 336 0.0 8.0 0.00 0.00 0.00 57 1018.3
20260903171530 33 160 0.0 4.8 0.00 0.00 0.00 59 1018.6
20260903170006 33 231 0.0 3.2 0.00 0.00 0.00 57 1018.8
20260903164533 32 239 0.0 3.2 0.00 0.00 0.00 58 1019.0
20260903163032 32 159 0.0 4.8 0.00 0.00 0.00 60 1019.2
20260903161527 32 171 0.0 3.2 0.00 0.00 0.00 62 1019.1
20260903160016 32 142 0.0 3.2 0.00 0.00 0.00 64 1019.3
20260903154513 32 20 4.8 6.4 0.00 0.00 0.00 67 1019.4
20260903153031 31 171 1.6 3.2 0.00 0.00 0.00 72 1019.4
20260903151543 30 330 0.0 3.2 0.00 0.00 0.00 73 1019.5
20260903150041 29 11 1.6 4.8 0.00 0.00 0.00 76 1019.5
20260903143023 28 348 1.6 4.8 0.00 0.00 0.00 78 1019.4
20260903141522 27 352 1.6 6.4 0.00 0.00 0.00 80 1019.4
20260903140011 26 352 0.0 0.0 0.00 0.00 0.00 83 1019.3
20260903134540 25 22 1.6 4.8 0.00 0.00 0.00 87 1019.2
20260903133031 24 42 0.0 6.4 0.00 0.00 0.00 90 1019.2
20260903131533 23 19 1.6 4.8 0.00 0.00 0.00 93 1019.3
20260903130030 23 128 0.0 0.0 0.00 0.00 0.00 95 1019.4
20260903124523 22 119 0.0 0.0 0.00 0.00 0.00 97 1019.5
20260903123030 22 119 0.0 0.0 0.00 0.00 0.00 97 1019.4
20260903121511 21 62 0.0 0.0 0.00 0.00 0.00 97 1019.5
20260903120017 21 170 0.0 0.0 0.00 0.00 0.00 97 1019.4
20260903114558 20 158 0.0 0.0 0.00 0.00 0.00 96 1019.2
20260903113031 20 158 0.0 0.0 0.00 0.00 0.00 96 1018.8
20260903111528 20 158 0.0 0.0 0.00 0.00 0.00 96 1018.6
20260903110025 20 158 0.0 0.0 0.00 0.00 0.00 96 1018.6
20260903104523 20 158 0.0 0.0 0.00 0.00 0.00 96 1018.5
20260903103020 20 158 0.0 0.0 0.00 0.00 0.00 96 1018.4
20260903101516 20 158 0.0 0.0 0.00 0.00 0.00 96 1018.4
20260903100035 20 158 0.0 0.0 0.00 0.00 0.00 96 1018.3
20260903094539 21 158 0.0 0.0 0.00 0.00 0.00 96 1018.1
20260903093050 21 158 0.0 0.0 0.00 0.00 0.00 96 1018.1
20260903091527 21 158 0.0 0.0 0.00 0.00 0.00 96 1018.0
20260903090028 21 158 0.0 0.0 0.00 0.00 0.00 95 1017.9
20260903084529 21 158 0.0 0.0 0.00 0.00 0.00 95 1018.0
20260903083032 21 158 0.0 0.0 0.00 0.00 0.00 96 1017.9
20260903081539 21 158 0.0 0.0 0.00 0.00 0.00 95 1017.9
20260903080035 21 158 0.0 0.0 0.00 0.00 0.00 95 1018.0
20260903074530 21 158 0.0 0.0 0.00 0.00 0.00 95 1017.9
20260903073029 21 158 0.0 0.0 0.00 0.00 0.00 95 1017.9
20260903071527 21 158 0.0 0.0 0.00 0.00 0.00 95 1017.7
20260903070028 21 158 0.0 0.0 0.00 0.00 0.00 95 1017.9
20260903064519 21 158 0.0 0.0 0.00 0.00 0.00 95 1017.6
20260903063015 21 158 0.0 0.0 0.00 0.00 0.00 95 1017.7
20260903061512 22 158 0.0 0.0 0.00 0.00 0.00 95 1017.6
20260903054536 22 158 0.0 0.0 0.00 0.00 0.00 95 1017.9
20260903053027 22 158 0.0 0.0 0.00 0.00 0.00 95 1018.0
20260903051527 22 158 0.0 0.0 0.00 0.00 0.00 95 1018.0
20260903050019 22 158 0.0 0.0 0.00 0.00 0.00 95 1018.0
20260903044514 22 165 0.0 0.0 0.00 0.00 0.00 95 1018.2
20260903043031 22 165 0.0 0.0 0.00 0.00 0.00 94 1018.4